Theta_e
297 297 296 296 297 297 298 299 300 300 301 301 301 301 301 302 302 300 294 297 294 287 289 290 290 286 285 285 281 279 279 277 276 275 273 269 265 268 264 267 266 266 264 262 263 260 262 277 276 273 277 277 277 277
296 296 295 295 296 296 296 298 299 298 300 300 300 301 301 301 302 301 293 296 296 289 287 289 291 292 293 290 285 281 283 276 279 273 272 270 268 263 264 265 271 266 270 267 270 269 277 278 278 280 279 279 277 277
295 295 295 294 294 295 295 296 297 298 298 298 299 300 300 300 300 300 295 294 294 286 287 286 287 292 288 288 291 283 283 284 282 282 281 280 277 270 265 265 269 270 273 271 270 276 277 279 280 280 280 280 279 279
294 293 294 293 294 293 294 294 295 296 297 297 297 298 299 299 300 300 294 295 293 287 279 281 287 285 286 288 288 289 286 284 283 282 281 278 273 275 270 272 272 273 273 271 270 275 278 278 279 280 280 280 276 274
293 292 292 293 293 293 293 293 294 294 295 295 296 296 296 298 299 297 296 296 296 289 278 282 284 284 284 284 284 285 286 283 281 279 278 275 273 276 270 267 268 272 275 274 276 283 281 282 283 275 277 274 276 275
292 292 292 292 292 292 292 292 293 293 293 294 295 295 294 296 298 293 285 294 296 294 284 279 281 281 283 284 283 284 284 283 283 281 279 279 274 277 270 267 282 279 281 283 281 285 284 283 277 274 276 276 273 274
291 291 291 291 291 291 292 292 292 292 293 293 294 294 294 296 295 287 284 290 298 294 284 278 271 279 283 283 281 281 282 281 282 281 279 275 272 276 269 270 283 279 281 282 283 282 280 281 279 276 275 273 269 268
291 290 290 290 291 291 291 291 292 292 292 293 293 294 293 296 295 289 293 295 297 288 285 278 269 272 281 277 275 281 278 279 279 279 277 272 270 268 269 274 276 278 277 281 284 282 283 277 270 272 268 267 268 270
290 290 290 290 290 291 291 291 291 291 292 292 293 294 291 288 284 285 295 296 296 287 281 277 268 267 275 277 277 276 279 273 275 271 271 272 265 267 272 274 277 279 277 282 276 274 269 271 276 271 268 264 270 272
289 289 290 290 290 290 290 291 291 291 292 292 289 284 281 284 293 293 289 283 284 284 283 279 266 268 274 272 274 273 271 267 270 267 269 270 268 274 276 277 279 281 281 276 273 277 263 266 270 268 269 271 273 274
290 290 290 290 290 290 291 291 291 291 291 285 282 281 284 294 287 284 279 279 279 277 279 275 267 271 275 272 272 269 268 266 264 265 267 261 262 271 277 280 282 281 281 282 279 281 274 272 272 272 269 269 270 269
289 289 290 290 290 290 290 291 291 287 284 284 284 286 285 283 281 276 275 278 276 271 276 271 270 273 276 273 270 268 266 269 266 261 262 259 268 274 275 275 275 275 276 275 269 272 269 272 271 271 268 268 269 270
289 289 289 289 290 290 291 291 291 290 290 285 281 279 277 277 273 269 271 273 272 274 272 274 273 272 271 273 271 269 264 265 259 258 260 265 272 272 273 269 271 266 267 267 266 262 263 264 263 266 269 263 264 266
289 289 289 289 290 291 291 291 291 290 285 279 274 268 272 267 272 274 271 270 268 271 273 274 269 272 268 267 265 268 261 260 256 254 261 268 275 275 268 265 265 266 264 265 265 260 260 259 262 262 265 263 265 266
289 289 289 289 290 291 290 290 291 286 282 277 275 270 273 271 270 267 266 265 264 277 275 270 269 272 268 267 265 261 259 260 259 264 269 276 269 268 266 262 261 262 263 262 261 258 259 256 255 260 260 261 263 260
288 288 285 290 290 290 290 289 286 284 281 276 274 273 273 267 268 266 260 270 264 276 269 271 270 271 271 268 264 264 261 260 267 265 272 270 268 264 263 260 260 259 259 258 257 257 256 253 253 257 255 254 258 261
288 281 289 290 289 290 290 285 283 277 274 274 273 272 274 272 268 270 269 266 272 274 268 270 267 270 266 258 257 260 263 268 270 273 273 270 269 266 260 257 257 257 258 256 254 254 253 251 248 251 257 258 254 257
284 284 289 288 285 285 282 281 275 276 271 269 268 268 269 271 267 267 270 272 277 275 274 271 268 263 262 263 262 267 271 274 270 275 276 266 260 257 256 259 256 256 256 254 252 252 249 250 252 253 253 253 252 252
283 283 289 288 282 273 270 270 271 265 262 265 271 265 263 270 269 268 269 269 268 268 271 269 272 266 265 266 266 266 267 267 271 273 267 258 256 256 256 255 254 253 254 253 253 253 252 252 253 252 253 253 257 253
288 290 290 289 284 268 265 266 267 263 262 266 260 261 260 263 273 271 263 263 270 272 271 268 262 265 269 272 268 268 268 263 263 264 265 260 255 254 255 253 254 252 253 253 252 253 252 254 252 251 251 253 256 256
285 288 289 279 277 275 266 267 269 263 261 265 263 261 264 272 274 274 274 270 268 265 262 265 267 270 265 263 261 260 262 262 263 263 263 263 256 254 254 253 251 252 254 253 253 252 251 252 253 251 252 252 253 254
282 285 279 279 273 270 270 267 266 264 266 265 269 263 266 267 270 272 272 266 263 266 266 266 268 272 264 263 269 264 263 256 254 255 256 255 259 258 257 254 255 255 253 253 252 252 251 251 251 252 255 252 255 254
281 277 273 271 269 265 266 264 265 265 267 264 261 264 265 260 261 267 264 263 264 266 267 264 262 258 264 258 259 263 264 265 266 257 254 254 253 253 254 254 254 257 255 254 251 251 251 254 253 254 253 255 256 256
276 266 263 262 263 260 258 260 257 257 257 257 258 258 257 258 264 268 266 259 265 256 263 266 261 260 259 257 261 266 266 264 263 259 254 259 259 257 256 257 257 255 253 254 252 252 252 252 254 255 255 256 255 256
266 263 261 258 257 258 257 257 256 259 254 253 256 256 258 260 257 261 261 261 256 262 270 259 257 266 272 269 257 257 256 264 264 265 261 262 260 260 260 263 258 259 256 258 255 255 256 256 256 257 257 258 258 258
259 257 260 254 255 259 256 257 255 257 254 256 258 257 256 257 257 259 259 262 259 253 251 261 264 268 265 263 258 256 258 257 261 263 261 263 265 264 267 268 267 264 262 261 261 260 260 260 261 261 260 260 261 260
258 258 255 254 255 254 256 254 257 259 261 259 260 261 263 262 260 264 253 247 248 246 247 248 248 252 256 253 253 253 254 257 260 262 262 261 262 264 267 269 269 267 266 266 265 265 264 263 262 262 261 261 261 262
257 254 261 257 256 255 255 253 254 257 260 261 264 262 264 265 267 259 258 256 255 248 247 248 249 249 249 251 251 253 254 255 260 259 259 261 262 264 265 264 262 268 266 266 266 265 265 264 262 262 261 261 261 261
255 251 255 254 253 252 256 259 258 257 255 258 262 260 266 262 259 258 256 255 254 247 247 248 249 247 249 249 250 251 253 259 262 260 263 264 262 264 263 261 263 264 265 266 268 266 265 264 263 262 262 261 261 261
252 249 252 251 255 259 262 261 258 254 254 257 258 259 259 259 258 256 255 253 253 248 249 249 249 250 252 253 252 254 252 254 255 261 265 266 267 263 263 264 264 265 266 266 266 266 267 264 264 262 261 260 259 259
245 249 252 252 256 258 255 253 251 252 253 254 256 257 258 258 258 254 254 248 247 248 249 249 249 248 251 252 252 254 256 256 257 259 261 264 264 264 265 266 266 267 266 265 264 263 262 261 261 260 259 258 258 257
247 251 253 255 258 256 255 253 251 253 254 253 254 256 256 254 256 256 250 250 250 251 253 251 249 252 250 250 250 252 257 256 257 258 262 263 265 266 266 266 265 265 264 263 262 262 261 261 260 259 257 257 255 255
250 252 254 258 260 260 259 258 258 258 258 257 257 256 255 256 254 255 252 251 252 251 251 251 251 250 251 252 253 254 258 257 260 266 266 266 266 266 265 264 264 264 263 262 262 261 260 259 259 257 256 255 255 254
Wind_Speed
22 23 24 26 26 27 27 28 25 26 26 24 25 24 22 22 22 13 4 9 8 3 4 7 10 8 3 5 6 6 5 2 3 5 4 5 4 6 2 4 8 10 9 6 4 3 13 10 5 10 7 3 3 4
23 25 24 25 26 27 29 28 27 21 24 26 25 26 25 24 23 20 9 6 6 6 4 2 4 4 10 10 7 7 1 6 7 3 2 2 1 2 4 5 1 3 11 10 14 15 6 9 7 10 8 6 4 4
24 23 25 27 27 25 29 27 26 27 25 23 24 24 25 26 26 20 10 6 5 5 5 4 7 6 2 4 5 7 2 4 4 4 3 3 5 5 5 9 5 6 6 5 2 13 23 17 15 8 7 10 7 6
24 24 25 25 26 26 28 28 28 27 27 23 21 25 25 25 27 22 9 7 9 3 4 7 2 4 3 6 3 0 8 5 5 1 2 3 3 4 4 4 6 8 9 7 9 21 14 19 13 14 13 12 7 6
23 23 26 26 27 27 27 27 29 28 28 28 25 23 22 27 28 16 9 7 13 7 5 3 2 1 1 6 8 6 10 7 3 4 4 5 3 1 1 2 10 9 11 8 13 24 10 12 8 3 9 10 13 9
23 25 26 28 29 26 27 25 26 26 26 27 27 26 21 32 26 7 4 9 14 9 2 3 2 2 1 5 8 9 6 3 3 3 4 4 1 4 4 7 21 9 15 21 24 23 16 13 7 4 8 10 9 11
25 25 27 25 27 26 25 26 25 25 24 25 26 27 18 28 13 7 5 2 21 10 3 3 2 2 5 3 2 2 2 1 2 3 4 3 2 4 3 11 30 7 12 16 21 16 18 16 15 9 10 7 3 4
27 27 25 26 27 27 25 24 24 26 23 23 23 25 18 26 15 12 10 8 9 9 4 4 2 2 3 3 3 2 3 2 3 2 1 3 1 1 11 10 9 13 11 18 21 15 22 7 2 7 4 5 6 7
25 25 25 26 27 25 24 24 25 23 22 22 19 25 13 11 4 3 13 13 9 5 6 5 10 6 3 3 3 1 2 2 1 3 3 5 4 11 11 12 16 19 11 16 5 8 5 9 15 8 7 4 8 9
24 26 28 25 24 23 22 23 23 21 21 19 7 6 5 6 15 10 10 4 7 6 3 3 2 6 5 3 2 4 0 4 4 6 3 5 8 9 12 19 20 23 15 5 4 16 2 7 9 7 12 10 13 11
26 23 20 20 19 20 21 20 19 17 14 2 4 3 3 16 4 5 5 8 3 5 5 4 5 9 3 5 4 3 4 3 3 5 5 4 6 9 19 21 20 15 12 13 14 17 7 8 7 8 8 11 9 8
17 15 16 17 17 18 17 16 16 7 3 4 2 1 3 3 4 6 5 4 5 6 3 7 4 5 3 3 5 2 4 2 6 1 2 6 9 12 10 11 10 9 8 8 6 9 5 9 8 8 6 8 11 10
18 18 17 18 20 19 21 19 18 13 7 1 1 2 4 5 8 8 10 4 4 5 5 6 5 5 3 2 3 3 5 7 2 3 7 8 9 9 10 5 7 3 2 2 5 3 4 5 4 7 8 5 5 8
18 20 20 21 22 25 20 18 16 9 3 5 7 5 5 5 4 4 8 6 5 7 10 9 5 5 3 3 3 5 1 3 2 1 9 6 14 13 0 3 0 3 2 4 7 4 5 4 6 6 7 4 7 8
20 21 21 22 22 18 12 11 11 4 5 5 5 7 6 2 2 0 2 1 2 7 11 6 4 4 3 4 2 5 4 6 7 8 8 8 5 6 4 2 4 4 4 3 3 4 5 5 4 7 6 6 6 4
21 21 14 22 17 11 10 4 2 2 1 2 1 3 1 2 2 1 2 1 2 8 3 4 6 5 5 5 5 10 8 8 7 8 6 3 4 4 4 3 5 3 2 4 3 4 4 4 5 6 5 4 5 6
20 5 10 13 10 11 8 2 1 2 2 1 2 1 2 1 3 3 5 4 4 7 4 5 6 7 4 4 2 6 8 6 7 5 3 4 5 4 4 2 3 2 3 4 3 4 4 4 4 1 5 5 4 5
9 6 10 1 1 5 1 2 2 1 2 1 2 3 2 3 0 2 2 3 2 2 2 4 6 3 6 7 5 7 8 4 2 5 5 4 3 2 2 3 2 2 3 4 4 4 3 4 3 4 4 3 3 2
6 5 9 7 6 5 4 3 3 2 3 1 1 2 2 1 1 1 1 2 3 3 6 2 3 3 5 4 2 2 3 1 3 4 4 2 2 1 3 2 2 2 2 2 2 3 3 5 4 3 3 3 3 2
10 14 16 11 6 4 4 3 3 5 2 3 2 2 1 1 2 3 2 3 2 3 3 1 5 5 4 4 5 4 4 1 1 3 5 4 1 1 2 1 2 2 2 3 2 2 3 3 2 3 0 3 4 3
7 4 14 8 3 4 4 0 2 2 1 2 1 2 2 1 4 4 2 1 3 2 2 5 5 4 3 2 2 3 4 4 4 4 3 4 2 1 2 2 2 1 2 2 2 3 4 2 4 3 3 3 4 4
4 9 4 5 4 3 4 2 2 1 2 2 1 2 3 3 3 2 3 2 4 5 5 5 4 3 2 3 4 5 3 4 3 1 0 1 3 3 2 2 2 1 2 1 1 0 2 3 2 3 5 4 6 6
5 4 4 4 5 5 1 2 3 3 2 2 3 3 0 1 3 1 2 4 5 5 4 4 3 2 0 1 1 3 5 5 3 3 3 3 2 2 0 1 0 1 2 2 0 2 1 2 4 5 4 5 7 7
8 6 5 3 3 1 3 3 3 3 3 3 3 3 3 4 0 2 5 4 6 2 2 6 4 1 3 2 3 4 5 4 2 2 3 4 1 2 1 1 2 1 1 3 2 3 3 2 3 4 5 7 6 7
7 5 5 3 4 5 3 3 4 4 1 2 2 4 4 3 3 5 6 6 3 4 7 2 2 5 7 4 0 3 3 4 5 4 3 3 4 3 1 3 2 1 2 4 2 3 3 2 3 5 5 6 9 9
3 4 2 5 2 4 5 3 3 6 3 2 6 3 2 3 2 8 7 5 5 4 4 6 7 6 5 4 2 2 4 3 3 3 2 3 3 3 4 3 2 3 4 3 6 6 5 4 6 8 8 9 10 10
2 4 3 2 4 3 3 2 1 2 4 7 4 5 4 5 9 8 2 2 3 3 3 2 2 1 2 1 1 1 2 1 3 2 2 3 1 2 1 2 1 2 5 6 5 7 8 7 7 8 8 6 6 7
4 4 5 3 1 1 3 1 5 7 6 4 4 6 8 8 7 2 1 1 1 1 2 3 3 3 2 2 1 2 3 0 4 4 3 2 2 1 2 3 2 6 3 4 6 6 6 7 8 9 9 9 8 6
1 2 4 1 1 2 6 7 6 4 3 2 4 4 4 1 0 0 1 1 0 1 2 2 3 1 1 1 1 0 2 4 7 5 4 3 3 2 2 3 4 3 2 6 10 9 10 8 9 9 10 9 8 7
4 1 4 2 5 7 5 5 3 2 1 1 1 3 3 3 2 2 2 1 2 3 3 3 3 3 4 4 3 1 2 2 2 3 3 3 3 5 5 5 6 3 5 8 10 12 15 13 13 9 9 8 7 8
1 3 1 3 5 4 2 0 2 2 1 2 2 3 3 4 1 2 2 3 3 1 1 1 3 3 3 3 3 4 1 3 3 2 2 1 4 5 5 6 6 5 7 9 9 9 10 9 9 11 10 11 10 9
2 5 3 3 5 1 1 1 2 3 3 3 3 3 1 1 4 1 1 3 2 1 4 3 3 4 4 3 2 1 1 3 3 3 5 3 4 5 6 7 7 7 8 9 9 9 11 12 10 11 11 12 10 10
2 1 2 3 3 3 3 2 3 4 3 4 4 5 4 3 5 1 1 2 2 3 3 3 3 3 3 3 3 2 2 2 4 6 8 9 9 9 7 6 7 8 10 9 9 10 12 15 12 12 12 12 11 11
Wind_Direction
284 287 287 288 286 285 289 284 272 272 265 261 253 247 239 245 245 231 220 179 196 251 239 202 171 165 139 163 164 157 115 254 147 196 185 217 172 220 111 187 179 170 160 195 135 206 274 173 76 174 221 256 222 201
284 279 281 281 285 286 283 290 278 280 281 263 256 249 247 242 236 239 233 192 190 217 266 293 258 244 187 185 140 183 204 166 168 145 225 116 238 91 175 251 296 259 194 181 187 214 240 210 221 231 164 199 220 207
288 288 287 291 288 283 280 281 285 285 259 272 274 254 251 247 240 231 223 162 201 219 260 215 221 207 120 224 176 146 213 171 222 191 151 181 230 125 181 236 185 255 175 228 79 250 242 244 252 255 226 228 213 212
280 286 287 285 284 283 284 283 280 275 276 265 259 271 252 235 249 226 230 177 190 202 201 235 102 170 169 167 176 136 133 93 111 124 165 159 203 184 224 235 203 192 144 192 261 276 276 259 237 244 249 236 225 221
276 282 282 288 285 281 284 286 277 275 269 268 261 263 276 236 236 238 227 209 188 192 202 147 72 142 206 157 150 157 140 126 168 150 189 212 209 149 215 30 243 178 196 203 246 259 235 259 248 216 215 226 229 197
282 283 284 285 285 282 281 281 280 271 275 269 268 259 257 265 218 217 230 211 201 182 206 217 116 166 130 135 141 149 149 122 160 176 180 224 82 152 228 245 261 187 215 229 247 261 259 262 245 209 202 228 221 198
281 284 284 286 284 281 277 279 276 275 275 268 269 263 262 253 206 211 186 153 180 159 187 177 229 160 132 114 112 107 109 163 164 180 220 176 225 170 221 250 260 235 228 234 240 258 270 247 256 221 210 222 177 205
277 284 286 285 282 279 276 277 277 278 272 269 267 267 231 242 231 232 222 225 208 163 164 200 114 110 179 146 131 151 135 137 204 232 136 166 73 150 249 252 284 252 257 254 248 219 244 268 323 224 189 148 177 201
284 286 284 280 279 278 275 278 276 276 273 270 264 277 241 218 160 235 173 192 199 214 178 136 145 194 180 117 118 115 149 160 5 217 226 135 202 223 233 242 249 257 213 256 235 248 270 223 248 232 194 192 202 216
285 281 282 284 281 272 275 278 276 272 274 272 268 219 208 201 142 160 166 178 207 183 209 152 123 150 136 134 150 119 100 206 199 233 112 217 252 270 255 244 256 265 258 179 257 273 229 258 230 219 214 210 208 208
286 284 283 280 276 273 279 275 270 268 273 210 208 195 198 145 109 177 215 189 192 178 151 137 138 128 221 140 145 178 172 187 202 249 174 254 270 239 235 241 249 261 256 247 228 253 220 205 206 228 231 217 209 196
286 283 280 278 275 280 290 274 265 244 201 192 183 118 154 161 198 197 186 189 195 186 122 124 156 124 149 116 110 205 167 145 240 169 89 271 249 251 258 252 258 245 240 239 212 249 243 231 220 217 213 208 209 210
287 283 283 282 282 279 292 269 253 235 193 156 247 278 145 221 203 190 173 188 148 145 151 142 114 124 93 88 91 125 144 211 65 80 230 232 257 277 263 243 274 282 202 273 275 266 276 255 252 200 223 223 189 198
282 286 286 291 289 297 282 257 236 219 153 215 154 216 220 204 225 213 162 166 199 137 144 137 112 128 149 94 135 148 187 88 75 278 238 244 240 249 289 254 117 282 215 258 276 284 276 268 266 258 243 207 183 200
275 281 288 287 296 285 263 229 224 148 210 231 146 180 223 184 64 13 328 24 144 140 131 100 63 97 127 108 97 106 53 249 205 224 225 237 275 255 270 252 237 255 256 247 256 280 281 283 266 274 256 228 213 171
270 280 283 285 273 253 231 150 128 172 247 128 113 153 238 66 195 143 13 146 214 140 77 71 121 148 174 142 145 211 136 216 233 221 239 253 275 256 251 234 241 228 257 274 268 252 278 281 266 259 299 237 212 182
265 221 248 269 256 231 156 142 87 96 165 48 199 271 174 183 222 156 141 243 201 129 133 121 130 190 107 81 243 179 196 223 230 240 240 222 236 253 220 244 275 274 277 280 280 291 271 274 289 284 258 260 201 211
245 233 244 250 312 88 34 53 88 92 186 209 136 242 177 127 119 335 172 201 130 91 107 173 125 114 172 168 248 223 229 275 261 260 282 265 253 255 193 232 252 250 277 285 266 293 293 310 298 250 256 265 126 99
220 205 200 224 151 106 96 348 77 124 224 316 293 320 324 126 127 236 61 60 100 130 103 75 138 192 214 211 215 285 280 248 300 316 292 330 32 277 283 305 314 294 295 286 297 279 265 252 244 260 256 153 160 154
269 244 189 179 84 80 62 329 85 104 137 221 30 42 106 107 94 87 40 2 78 79 66 145 206 223 193 205 186 192 213 198 347 302 286 320 326 21 331 303 286 301 328 327 303 310 327 333 330 330 140 144 125 154
6 118 177 105 59 55 102 126 86 154 157 106 214 92 112 97 141 155 162 312 64 167 212 219 225 238 203 214 176 164 202 161 184 183 237 306 322 314 317 326 291 9 59 13 360 333 11 338 298 320 57 52 79 90
13 41 77 26 81 43 71 9 92 238 72 194 95 81 111 145 167 162 109 52 226 223 197 191 218 202 159 240 208 204 171 142 150 218 310 344 319 329 340 313 15 348 61 45 7 344 310 311 350 31 69 61 66 70
86 48 51 44 76 39 270 38 83 347 118 258 27 55 321 4 233 276 145 219 240 229 199 193 224 19 235 352 316 222 196 193 186 161 171 178 250 267 296 318 302 210 89 354 164 119 65 32 51 78 65 68 87 85
37 57 69 75 68 205 6 10 23 62 54 79 124 238 256 200 178 208 233 248 242 348 177 215 151 78 19 37 240 238 201 174 145 123 177 136 177 277 141 250 231 79 179 140 102 92 70 74 80 81 83 86 77 92
70 331 85 358 353 71 60 6 342 53 249 217 114 286 240 127 138 205 222 255 239 213 218 158 171 221 214 230 272 245 258 169 163 175 207 168 130 67 299 206 78 206 175 121 99 96 87 92 85 95 92 102 110 109
87 291 115 188 260 119 187 126 193 209 173 237 232 235 78 112 144 237 226 228 208 200 199 197 198 208 248 212 192 166 226 210 121 127 210 183 157 158 234 136 177 209 202 161 136 131 131 125 117 113 108 112 118 119
137 262 275 226 125 106 19 331 19 113 211 210 204 168 158 209 233 240 251 235 191 230 199 194 158 191 236 210 252 334 37 89 121 166 85 105 104 137 235 136 201 128 153 157 147 149 145 136 125 120 114 102 109 120
186 156 169 217 115 118 164 201 190 219 226 222 132 183 187 210 242 4 29 111 155 242 271 257 202 173 178 219 216 119 75 72 89 70 46 39 19 60 72 84 77 106 114 123 125 126 132 131 129 128 126 121 113 108
168 262 100 192 327 223 215 207 227 236 201 134 174 229 241 237 330 214 142 153 120 71 335 277 270 170 16 342 20 267 153 170 140 137 194 193 197 186 161 106 96 80 130 115 113 114 118 118 118 115 112 108 101 95
267 142 105 165 179 229 235 179 227 219 193 200 295 296 255 242 180 126 146 183 208 216 224 219 245 177 170 156 177 268 289 194 176 147 164 195 206 133 148 135 113 133 136 123 119 116 109 107 107 104 104 104 105 107
156 68 21 206 243 244 220 229 27 29 323 238 237 245 267 317 282 169 173 184 178 175 172 236 254 247 155 164 160 138 222 249 200 190 226 90 118 132 137 128 131 138 125 122 126 130 126 118 119 117 113 112 113 113
112 200 178 253 270 306 33 56 238 232 200 200 239 198 268 3 266 290 193 111 82 240 239 182 179 229 215 223 217 210 77 120 143 176 170 146 131 129 125 117 124 127 124 122 122 124 123 121 121 120 118 116 113 113
322 274 253 272 274 248 190 223 231 263 210 220 219 179 193 207 248 300 322 177 193 219 218 205 209 193 182 181 171 161 134 141 168 150 136 126 122 119 112 118 121 123 123 121 121 123 120 121 117 117 116 117 117 117